This is the latest recevied weather packets stored in our database for station/object SV9FBP-13. If no packets are shown the sender has not sent any weather packets the latest 10 day(s).
| Time | Temp. | Humidity | Pressure | Rain* | Wind** | Luminosity | Snow |
|---|---|---|---|---|---|---|---|
| 1788228254 | 26.67° C | 51% | 1008.4 hPa | 0 mm | - | - | - |
| 1788227351 | 26.11° C | 54% | 1008.5 hPa | 0 mm | - | - | - |
| 1788226449 | 26.11° C | 56% | 1008.5 hPa | 0 mm | - | - | - |
| 1788225547 | 26.11° C | 56% | 1008.5 hPa | 0 mm | - | - | - |
| 1788224645 | 26.11° C | 57% | 1008.6 hPa | 0 mm | - | - | - |
| 1788223743 | 26.11° C | 57% | 1008.7 hPa | 0 mm | - | - | - |
| 1788222841 | 26.67° C | 53% | 1008.7 hPa | 0 mm | - | - | - |
| 1788221938 | 26.67° C | 51% | 1008.5 hPa | 0 mm | - | - | - |
| 1788221037 | 26.67° C | 50% | 1008.9 hPa | 0 mm | - | - | - |
| 1788220133 | 26.67° C | 51% | 1008.9 hPa | 0 mm | - | - | - |
| 1788219232 | 26.67° C | 48% | 1009 hPa | 0 mm | - | - | - |
| 1788218330 | 26.67° C | 50% | 1009 hPa | 0 mm | - | - | - |
| 1788217428 | 26.67° C | 51% | 1009.2 hPa | 0 mm | - | - | - |
| 1788216526 | 27.22° C | 47% | 1009.4 hPa | 0 mm | - | - | - |
| 1788215623 | 27.22° C | 50% | 1009.1 hPa | 0 mm | - | - | - |
| 1788214721 | 26.67° C | 50% | 1009 hPa | 0 mm | - | - | - |
| 1788213819 | 26.67° C | 51% | 1009.1 hPa | 0 mm | - | - | - |
| 1788212917 | 27.22° C | 50% | 1009.6 hPa | 0 mm | - | - | - |
| 1788212015 | 27.22° C | 49% | 1009.7 hPa | 0 mm | - | - | - |
| 1788211113 | 27.22° C | 44% | 1009.7 hPa | 0 mm | - | - | - |
| 1788210211 | 27.22° C | 46% | 1009.8 hPa | 0 mm | - | - | - |
| 1788209309 | 27.78° C | 40% | 1009.5 hPa | 0 mm | - | - | - |
| 1788208407 | 27.22° C | 43% | 1009.3 hPa | 0 mm | - | - | - |
| 1788207505 | 27.22° C | 51% | 1009.3 hPa | 0 mm | - | - | - |
| 1788206602 | 27.22° C | 50% | 1009.4 hPa | 0 mm | - | - | - |
* Rain latest hour (hover to see other rain measurements)
** Current wind speed in m/s (hover to see current wind gust speed)